Grizzly Air Cargo 5147


PADK
Adak Airport
Adak Island, Alaska, US
PANC
Ted Stevens Anchorage International Airport
Anchorage, Alaska, US

Activity Log

Date Flight Route Aircraft Duration
07/15/2019 GRZ521 ADK028021 SIYNY G8 AUB STREW V456 TUCKS AMOTT4 B722 2h 41m
07/03/2019 GRZ521 SIYNY G8 AUB STREW V456 TUCKS AMOTT4 B722 2h 35m
04/24/2019 GRZ521 ADK028021 SIYNY G8 AUB STREW V456 TUCKS AMOTT4 B722 2h 45m

Route Details

Aircraft Information
Primary: Boeing 727-200F
Backup: Boeing 737-800BCF
Route Data
Distance: 1036nm
Sched. Duration: 3h 00m
Avg. Duration: 2h 40m (-59m)
Times Flown: 3
Recm'd Route: ADK028021 SIYNY G8 AUB STREW V456 TUCKS AMOTT4
Planned Altitude: 35,000ft
Origin Wx: PADK 151856Z AUTO 17010KT 10SM BKN017 OVC037 10/09 A2944 RMK AO2 SLP968 T01000089
Dest. Wx: PANC 151853Z 00000KT 10SM FEW100 FEW250 20/11 A2983 RMK AO2 SLP100 T02000106
Notes:

Financial History
Total Freight: 103,422lbs
Average Load: 34,474lbs/flt
Fuel Used: 43,540lbs
Avg. Fuel Used: 14,513lbs/flt
Fuel Expense: $40,057
Avg. Fuel Expense: $13,352
Avg. Fuel Cost: $0.92/lbs
Total Gross Income: $153,065
Pilot Pay: $687
Total Expenses: $16,687
Total Revenue: $94,401
Average Revenue: $51,021.52